Wind_Speed
8 10 11 9 7 5 4 3 2 1 0 1 2 2 1 1 2 2 2 2 2 5 6 6 7 8 9 10 11 14 17 19 21 25 26 28 28 29 28 28 29 31 33 36 39
8 9 11 9 7 4 3 2 2 1 2 1 1 2 1 0 1 2 2 2 4 5 6 7 7 9 10 12 14 16 19 21 24 26 27 27 26 26 26 27 28 30 34 38 43
9 9 11 9 6 4 2 1 0 1 2 2 2 2 2 2 1 2 3 4 6 6 7 8 10 11 13 15 18 20 21 23 25 26 26 25 25 25 26 28 31 33 37 42 47
10 8 10 8 5 2 1 1 2 2 2 3 3 3 3 2 2 3 4 6 6 7 8 9 11 13 15 18 20 22 23 24 26 26 26 25 25 26 28 30 33 36 41 46 51
11 8 9 7 5 2 1 3 4 4 4 4 4 3 2 2 3 5 6 7 7 7 9 10 12 15 18 20 22 23 24 25 25 25 24 24 25 25 28 31 35 40 44 49 56
13 10 9 7 4 1 3 4 5 5 5 4 4 3 4 5 6 7 8 7 7 7 8 10 14 16 19 21 22 23 24 25 24 23 23 24 23 26 29 33 38 42 48 55 61
16 12 9 8 4 3 3 6 6 6 5 4 3 4 6 8 10 10 7 7 6 7 9 12 14 17 19 22 23 24 25 25 24 24 23 22 24 28 32 36 42 47 54 61 65
17 15 10 8 5 4 4 6 6 6 6 6 6 7 10 13 11 8 7 5 4 6 9 12 15 18 20 22 24 25 25 24 25 22 23 25 26 29 35 40 45 51 59 65 68
19 17 13 9 6 6 5 7 7 7 8 9 10 11 13 13 9 7 5 3 3 6 9 12 15 18 21 23 23 25 28 26 23 22 25 27 29 33 38 43 48 56 63 67 56
21 20 15 11 8 8 7 7 8 9 11 12 13 15 13 11 8 5 2 2 4 7 10 13 16 19 22 25 27 27 26 24 24 24 27 29 31 36 41 46 52 60 66 62 38
23 22 18 13 11 10 10 9 10 11 12 14 17 15 12 9 6 3 1 3 6 8 11 14 16 20 23 25 25 25 24 23 24 25 28 30 33 38 44 50 57 63 63 47 19
25 24 21 16 14 13 12 12 12 12 15 17 18 14 11 7 4 1 2 6 9 10 13 15 17 20 23 25 25 24 24 22 23 26 29 30 36 41 47 52 59 62 54 23 16
27 26 23 19 17 15 14 13 14 16 18 19 16 12 9 6 3 2 4 7 11 12 14 16 18 21 23 24 25 25 25 24 24 27 31 32 35 42 48 53 60 62 47 16 18
30 28 26 22 20 18 17 15 17 19 20 19 15 12 8 5 3 3 6 9 12 13 15 17 19 20 23 25 25 25 25 23 24 29 32 36 41 45 51 55 61 62 39 19 23
32 31 29 25 23 21 20 19 20 21 21 18 15 11 8 6 4 4 7 11 12 13 15 17 19 21 23 25 25 24 25 24 26 30 30 36 42 47 51 55 59 61 35 19 23
33 34 32 28 26 25 22 23 23 22 22 18 14 12 9 7 6 7 9 11 12 13 15 17 20 22 24 25 24 25 24 25 27 32 32 39 45 49 49 52 58 59 30 19 22
34 35 35 32 29 28 27 26 26 24 19 17 15 13 10 8 8 8 10 11 12 13 15 18 21 23 24 25 25 25 27 29 32 35 34 39 43 45 48 51 56 61 31 21 23
35 37 38 35 32 32 31 30 29 25 23 17 17 15 12 10 9 9 10 10 11 13 16 20 21 24 25 25 26 26 27 27 30 33 32 35 43 48 50 51 55 59 33 21 24
37 39 40 38 35 36 35 34 31 29 24 19 18 16 13 10 10 9 9 9 10 13 16 20 22 23 24 25 26 26 26 27 28 31 34 37 42 47 51 52 55 58 36 22 24
39 41 42 41 38 39 39 36 34 29 28 22 18 17 14 12 11 9 8 8 9 12 16 19 20 23 24 25 26 26 27 28 30 34 36 38 44 48 51 51 56 58 37 22 24
42 42 43 43 42 43 41 38 35 33 30 25 21 18 14 13 11 9 7 7 8 11 15 17 19 22 24 25 27 26 27 28 28 33 37 41 43 47 50 49 56 59 41 21 23
46 44 44 46 46 44 43 42 36 35 33 27 24 19 15 12 11 9 9 8 8 10 12 14 17 22 24 26 27 27 27 28 28 32 36 38 39 47 49 49 55 62 41 19 24
48 45 45 48 49 46 44 40 40 38 35 31 26 20 16 13 12 11 10 9 8 7 8 13 17 21 23 26 28 28 27 28 28 31 34 37 41 45 49 51 54 60 42 18 22
49 47 48 50 50 47 44 43 43 40 37 34 29 23 18 14 13 13 12 10 9 6 8 14 18 21 25 28 30 28 28 28 28 30 32 34 40 45 50 54 55 58 45 17 23
50 50 47 51 49 48 45 45 45 42 40 36 32 26 21 16 15 15 14 13 11 9 9 14 17 20 23 27 29 29 28 28 28 29 31 34 36 42 48 53 53 57 51 18 23
55 51 48 50 48 51 49 46 45 45 41 38 34 30 25 19 16 18 16 15 14 12 10 13 15 19 22 25 28 28 29 28 27 28 29 32 33 39 46 51 52 54 53 20 22
58 54 52 51 50 54 49 45 45 46 45 40 39 34 29 22 18 20 19 17 17 16 12 12 14 18 21 23 27 27 29 28 27 28 28 30 32 37 43 49 52 51 55 28 23
Wind_Direction
305 323 334 339 341 333 322 324 315 315 250 135 122 102 88 358 359 25 67 67 21 351 356 11 9 3 356 352 342 333 324 318 312 312 313 312 311 310 311 311 310 311 311 311 314
293 317 326 335 339 332 318 326 315 297 260 234 190 202 228 332 32 48 58 21 360 28 41 32 21 12 4 355 343 331 323 320 318 315 314 313 314 315 315 314 314 314 315 316 315
281 307 320 329 339 336 311 326 35 182 214 196 176 169 125 89 54 54 22 26 62 61 55 37 19 8 360 348 339 331 325 321 319 318 320 322 322 320 321 321 320 320 318 315 314
269 293 312 319 333 340 293 213 181 165 167 156 145 132 111 96 70 41 66 79 80 71 45 25 14 3 353 344 335 331 327 325 324 325 326 328 324 325 326 325 325 319 316 315 312
259 274 299 307 319 336 190 189 177 154 155 161 154 127 89 99 85 99 99 96 85 51 31 20 9 359 349 342 336 333 330 327 327 329 329 328 325 329 329 329 324 321 318 313 313
253 262 282 296 298 297 192 188 183 160 161 175 162 123 109 114 122 117 108 94 68 43 27 14 3 356 349 343 340 335 331 330 330 330 329 328 331 334 333 329 326 324 319 319 316
248 251 265 284 276 271 201 196 190 168 169 183 188 157 142 135 130 123 109 88 62 32 17 7 358 352 348 346 344 339 336 335 333 334 333 337 334 336 333 330 329 324 325 321 318
242 242 251 263 258 250 217 198 193 186 190 194 178 163 145 138 131 117 98 80 40 16 2 357 353 350 349 348 345 344 342 338 339 341 341 340 337 338 333 332 329 329 327 326 323
237 237 242 247 241 236 231 199 199 197 192 180 167 153 146 141 133 118 99 62 9 352 346 348 348 349 348 348 345 347 345 344 345 344 344 342 341 338 336 334 333 333 332 328 327
233 234 234 239 227 226 224 194 190 186 180 175 164 152 148 146 135 119 99 15 346 340 340 341 344 345 346 347 350 348 346 344 342 344 346 344 340 341 340 337 337 339 337 330 335
229 230 232 231 222 218 215 198 187 185 177 166 163 154 152 146 144 141 15 326 333 338 334 335 340 342 344 348 348 349 345 342 341 343 344 342 341 344 342 343 342 342 337 337 347
229 224 228 228 216 214 210 203 195 184 177 169 163 160 155 154 157 172 315 330 331 332 335 336 337 340 344 346 345 346 347 343 342 341 342 344 345 347 346 346 345 344 340 344 348
228 219 224 226 214 212 208 209 200 185 176 169 167 164 164 169 181 271 321 333 328 330 336 336 336 338 342 341 342 346 348 342 341 342 344 344 346 347 350 348 347 346 342 345 349
228 217 220 222 215 207 205 199 191 183 175 174 174 173 183 196 213 295 323 328 328 331 334 335 335 336 339 338 342 345 347 343 341 345 348 349 350 353 351 352 350 349 344 338 344
228 219 217 219 214 206 202 197 189 182 180 181 181 188 193 205 237 297 315 329 331 334 333 335 333 336 335 338 342 345 347 345 341 348 348 351 352 357 354 355 353 349 341 332 339
227 222 216 216 212 207 201 197 189 188 189 186 190 197 208 223 255 284 307 326 333 332 333 333 334 333 334 338 340 343 345 344 347 350 350 356 357 357 355 355 356 351 339 330 338
227 224 216 215 213 207 201 198 194 193 188 196 198 204 215 231 258 282 303 322 329 329 332 331 334 334 336 338 342 343 344 348 352 354 358 354 353 355 354 353 355 353 341 334 341
225 224 216 215 213 207 204 200 198 193 193 199 202 208 222 237 260 279 298 316 325 330 331 333 335 335 339 341 345 346 348 350 351 351 350 352 355 356 353 353 357 353 348 339 348
220 223 218 216 214 209 207 202 198 198 197 204 208 215 225 240 257 275 290 307 322 328 332 334 337 340 343 343 346 347 347 348 347 349 350 350 353 357 355 356 357 353 349 350 350
219 221 220 216 214 213 208 204 201 201 202 204 210 214 226 244 256 267 278 295 314 324 332 339 343 343 345 345 347 348 347 347 348 352 351 352 351 356 357 359 359 353 350 355 349
222 219 220 218 214 215 208 208 201 206 206 207 213 212 229 245 250 258 261 281 304 321 334 343 348 349 348 348 347 350 348 346 348 352 351 353 355 355 359 0 0 356 353 354 349
224 220 219 218 216 216 210 210 204 209 207 207 209 214 225 239 245 249 252 267 291 317 337 340 352 354 352 351 349 351 350 346 346 351 352 353 354 358 360 1 360 358 356 353 355
225 221 218 219 217 216 213 210 209 210 210 210 209 214 222 235 240 240 245 256 275 305 330 335 346 351 354 353 352 353 351 348 347 349 354 353 353 358 0 2 4 0 0 1 360
224 222 218 219 218 216 214 211 210 212 212 210 210 212 221 231 237 236 241 248 260 270 305 327 339 346 350 350 355 354 353 349 349 351 353 353 355 358 0 3 6 3 2 9 7
224 223 220 219 218 218 216 214 212 213 214 213 211 212 219 227 236 237 239 244 251 252 292 318 330 338 344 347 351 355 354 351 351 352 351 353 357 359 2 4 8 6 2 16 8
223 224 222 222 217 218 214 214 213 214 216 214 210 214 219 226 234 237 240 242 246 253 270 305 323 333 338 343 347 353 355 353 352 353 350 354 359 0 3 4 9 11 11 14 11
223 223 222 222 218 218 215 215 214 214 216 214 214 216 221 226 233 237 240 241 245 253 260 286 308 326 335 339 344 352 356 355 352 353 351 353 360 2 5 4 8 10 13 10 13
Height
5884 5883 5881 5878 5878 5876 5876 5875 5876 5876 5876 5876 5876 5876 5876 5876 5876 5876 5876 5876 5875 5874 5874 5873 5872 5871 5870 5868 5866 5864 5862 5858 5855 5851 5848 5844 5841 5836 5832 5828 5823 5819 5814 5808 5802
5882 5882 5880 5878 5877 5876 5876 5875 5875 5876 5876 5876 5876 5876 5876 5876 5876 5876 5876 5876 5875 5874 5874 5873 5872 5871 5869 5867 5865 5863 5860 5856 5852 5848 5845 5841 5836 5832 5828 5823 5819 5814 5808 5802 5796
5881 5881 5880 5878 5877 5876 5876 5875 5875 5876 5876 5876 5876 5876 5876 5876 5877 5876 5876 5875 5874 5874 5874 5873 5872 5871 5869 5866 5864 5861 5857 5853 5849 5845 5841 5836 5832 5827 5823 5819 5813 5808 5803 5797 5789
5880 5880 5879 5878 5877 5876 5875 5875 5875 5875 5876 5876 5876 5876 5876 5876 5878 5876 5875 5875 5875 5875 5875 5873 5872 5870 5868 5865 5862 5859 5855 5850 5846 5841 5837 5832 5827 5823 5819 5815 5810 5805 5798 5791 5781
5878 5878 5878 5877 5877 5875 5875 5875 5875 5875 5876 5877 5876 5876 5876 5877 5876 5876 5876 5877 5877 5876 5875 5873 5872 5869 5867 5863 5860 5856 5852 5847 5843 5838 5833 5829 5825 5821 5817 5812 5806 5800 5792 5782 5772
5877 5877 5877 5876 5876 5875 5874 5874 5875 5875 5876 5877 5877 5876 5876 5877 5876 5877 5877 5877 5877 5876 5875 5873 5871 5868 5865 5862 5858 5853 5849 5844 5840 5836 5831 5827 5822 5818 5814 5808 5802 5793 5783 5773 5760
5875 5875 5875 5875 5874 5874 5873 5873 5874 5874 5875 5876 5876 5876 5876 5878 5877 5878 5878 5878 5877 5876 5875 5873 5870 5868 5864 5860 5856 5851 5847 5842 5838 5833 5828 5825 5820 5815 5810 5803 5795 5785 5775 5762 5746
5872 5872 5873 5873 5873 5873 5872 5873 5873 5874 5875 5875 5876 5876 5876 5877 5878 5878 5878 5878 5877 5876 5875 5873 5870 5867 5863 5859 5854 5850 5845 5841 5836 5830 5826 5822 5818 5812 5805 5798 5788 5778 5764 5748 5733
5869 5870 5871 5871 5871 5872 5872 5872 5872 5873 5874 5875 5876 5876 5877 5878 5878 5878 5878 5878 5877 5876 5874 5872 5869 5866 5862 5858 5854 5848 5842 5837 5833 5828 5824 5819 5814 5808 5800 5793 5782 5769 5753 5736 5721
5865 5867 5868 5869 5869 5870 5871 5871 5871 5872 5873 5874 5875 5878 5878 5879 5879 5879 5879 5878 5877 5875 5874 5871 5868 5865 5861 5856 5851 5846 5840 5836 5830 5827 5821 5816 5810 5803 5795 5786 5774 5760 5744 5726 5716
5861 5864 5865 5866 5867 5868 5870 5870 5872 5872 5872 5874 5876 5876 5877 5878 5879 5879 5879 5878 5876 5875 5873 5870 5867 5863 5859 5854 5850 5845 5840 5834 5829 5824 5820 5813 5806 5799 5790 5779 5765 5751 5735 5721 5714
5857 5859 5862 5863 5864 5866 5867 5869 5870 5871 5872 5873 5874 5876 5877 5877 5878 5878 5878 5878 5875 5874 5871 5869 5865 5862 5857 5853 5848 5844 5838 5833 5827 5823 5818 5811 5802 5794 5784 5773 5760 5746 5730 5717 5712
5852 5854 5858 5860 5861 5863 5864 5867 5868 5869 5871 5873 5874 5876 5877 5878 5878 5878 5878 5876 5874 5872 5869 5866 5864 5860 5856 5852 5847 5841 5836 5831 5826 5820 5813 5807 5802 5791 5781 5767 5753 5739 5724 5716 5711
5847 5849 5853 5856 5860 5860 5862 5864 5866 5868 5870 5873 5874 5875 5877 5877 5878 5877 5876 5875 5873 5870 5868 5865 5862 5858 5854 5850 5844 5839 5834 5829 5824 5818 5810 5803 5795 5786 5775 5762 5748 5733 5721 5716 5711
5841 5845 5848 5852 5855 5857 5860 5861 5864 5866 5869 5872 5873 5874 5875 5877 5877 5876 5875 5873 5871 5869 5867 5864 5860 5856 5852 5847 5842 5838 5832 5827 5821 5815 5808 5802 5793 5782 5770 5758 5745 5731 5720 5715 5709
5835 5840 5842 5847 5851 5854 5856 5859 5862 5866 5866 5869 5871 5873 5874 5875 5875 5875 5874 5872 5869 5867 5864 5862 5858 5854 5850 5845 5840 5836 5832 5825 5819 5812 5805 5797 5788 5778 5769 5758 5744 5729 5717 5712 5707
5828 5833 5836 5841 5846 5849 5852 5856 5860 5861 5866 5868 5869 5871 5872 5873 5873 5873 5871 5870 5868 5866 5863 5860 5856 5852 5847 5843 5838 5833 5828 5821 5815 5807 5803 5796 5788 5780 5768 5756 5743 5728 5714 5711 5705
5820 5826 5830 5835 5840 5844 5848 5852 5855 5859 5861 5864 5866 5869 5870 5871 5871 5870 5869 5868 5866 5864 5861 5858 5854 5850 5845 5841 5836 5830 5825 5820 5814 5809 5803 5796 5787 5776 5765 5754 5740 5726 5713 5709 5704
5812 5818 5823 5829 5834 5838 5843 5846 5851 5853 5858 5861 5863 5866 5867 5868 5869 5867 5867 5866 5864 5862 5860 5856 5852 5848 5844 5839 5835 5830 5825 5820 5814 5809 5801 5793 5786 5776 5764 5751 5737 5722 5711 5708 5702
5803 5810 5816 5821 5826 5832 5837 5842 5846 5851 5854 5857 5859 5862 5864 5865 5866 5865 5864 5864 5862 5860 5858 5855 5851 5847 5843 5838 5834 5829 5824 5818 5812 5805 5798 5792 5782 5772 5761 5749 5734 5719 5709 5706 5701
5795 5801 5808 5813 5818 5824 5831 5837 5842 5846 5850 5853 5856 5858 5861 5862 5862 5862 5862 5861 5860 5858 5856 5853 5850 5847 5842 5837 5832 5828 5822 5816 5811 5804 5796 5788 5781 5772 5761 5748 5735 5720 5708 5704 5700
5786 5792 5798 5804 5810 5818 5823 5830 5838 5841 5844 5848 5851 5854 5857 5858 5858 5858 5859 5858 5857 5856 5854 5852 5849 5845 5841 5836 5831 5826 5821 5815 5809 5804 5796 5788 5782 5772 5760 5749 5734 5720 5707 5703 5700
5777 5783 5789 5795 5800 5811 5816 5825 5829 5834 5839 5844 5847 5850 5852 5854 5855 5855 5855 5856 5855 5854 5852 5850 5847 5844 5841 5837 5830 5825 5819 5814 5808 5802 5795 5787 5779 5770 5760 5748 5736 5721 5707 5703 5697
5768 5773 5779 5785 5792 5803 5810 5816 5822 5828 5833 5837 5842 5845 5848 5849 5850 5851 5852 5852 5852 5851 5850 5848 5845 5842 5839 5834 5829 5823 5818 5812 5807 5801 5794 5787 5778 5768 5758 5747 5735 5723 5708 5702 5698
5757 5765 5772 5777 5785 5795 5802 5809 5815 5821 5826 5832 5837 5840 5843 5845 5846 5847 5848 5849 5849 5849 5848 5847 5844 5841 5837 5833 5828 5823 5817 5811 5805 5800 5793 5786 5779 5770 5760 5749 5737 5725 5710 5702 5698
5748 5755 5762 5770 5777 5784 5790 5801 5808 5813 5820 5826 5831 5834 5837 5839 5841 5843 5844 5845 5845 5845 5845 5844 5842 5839 5836 5832 5827 5822 5816 5810 5805 5799 5792 5786 5780 5771 5762 5751 5739 5727 5714 5704 5699
5736 5744 5752 5761 5767 5773 5783 5795 5801 5805 5811 5819 5823 5827 5831 5835 5836 5837 5839 5840 5841 5842 5842 5841 5840 5837 5834 5830 5826 5822 5816 5809 5803 5798 5792 5785 5779 5771 5763 5752 5741 5730 5717 5706 5701